TimeCDT,TemperatureF,Dew PointF,Humidity,Sea Level PressureIn,VisibilityMPH,Wind Direction,Wind SpeedMPH,Gust SpeedMPH,PrecipitationIn,Events,Conditions,WindDirDegrees,DateUTC
12:15 AM,64.0,64.0,100,29.71,10.0,West,6.9,-,N/A,,Overcast,280,2013-09-20 05:15:00
12:35 AM,64.4,64.4,100,29.72,10.0,West,5.8,-,N/A,,Overcast,280,2013-09-20 05:35:00
12:55 AM,64.4,64.4,100,29.71,10.0,WNW,3.5,-,N/A,,Overcast,290,2013-09-20 05:55:00
1:15 AM,64.4,64.4,100,29.70,10.0,Calm,Calm,-,N/A,,Overcast,0,2013-09-20 06:15:00
1:35 AM,64.4,64.4,100,29.70,10.0,Calm,Calm,-,N/A,,Overcast,0,2013-09-20 06:35:00
1:55 AM,64.4,64.4,100,29.72,10.0,WSW,4.6,-,N/A,,Overcast,250,2013-09-20 06:55:00
2:15 AM,64.2,64.2,100,29.71,7.0,WSW,4.6,-,N/A,,Overcast,250,2013-09-20 07:15:00
2:35 AM,64.0,64.0,100,29.71,5.0,SW,3.5,-,N/A,Rain,Light Rain,230,2013-09-20 07:35:00
2:55 AM,64.0,64.0,100,29.70,4.0,WSW,4.6,-,N/A,Rain,Light Rain,240,2013-09-20 07:55:00
3:15 AM,64.0,64.0,100,29.70,4.0,SW,4.6,-,N/A,Rain,Light Rain,230,2013-09-20 08:15:00
3:35 AM,63.9,63.9,100,29.69,4.0,SW,4.6,-,N/A,,Overcast,230,2013-09-20 08:35:00
3:55 AM,63.9,63.9,100,29.69,5.0,WSW,5.8,-,N/A,,Overcast,240,2013-09-20 08:55:00
4:15 AM,63.9,63.9,100,29.69,5.0,WSW,4.6,-,N/A,,Overcast,240,2013-09-20 09:15:00
4:35 AM,64.0,64.0,100,29.69,5.0,WSW,5.8,-,N/A,,Overcast,250,2013-09-20 09:35:00
4:55 AM,64.0,64.0,100,29.69,5.0,West,4.6,-,N/A,Rain,Light Rain,270,2013-09-20 09:55:00
5:15 AM,64.2,64.2,100,29.69,7.0,West,4.6,-,N/A,,Overcast,280,2013-09-20 10:15:00
5:35 AM,64.0,64.0,100,29.69,5.0,WNW,5.8,-,N/A,,Overcast,290,2013-09-20 10:35:00
5:55 AM,63.7,63.7,100,29.69,5.0,WNW,4.6,-,N/A,,Overcast,290,2013-09-20 10:55:00
6:15 AM,63.7,63.5,99,29.68,5.0,West,3.5,-,N/A,,Overcast,260,2013-09-20 11:15:00
6:35 AM,63.5,63.5,100,29.69,5.0,WSW,3.5,-,N/A,,Overcast,240,2013-09-20 11:35:00
6:55 AM,63.5,63.5,100,29.69,4.0,West,4.6,-,N/A,Rain,Light Rain,260,2013-09-20 11:55:00
7:15 AM,63.1,63.1,100,29.70,2.0,WNW,10.4,-,0.03,Rain,Heavy Rain,290,2013-09-20 12:15:00
7:35 AM,62.1,61.9,99,29.71,4.0,WNW,11.5,21.9,0.03,Rain,Rain,290,2013-09-20 12:35:00
7:55 AM,61.7,61.5,99,29.72,5.0,West,13.8,19.6,0.03,Rain,Light Rain,270,2013-09-20 12:55:00
8:15 AM,61.3,60.8,98,29.72,10.0,West,11.5,17.3,N/A,,Overcast,270,2013-09-20 13:15:00
8:35 AM,61.3,60.4,97,29.70,10.0,NNW,8.1,-,N/A,,Overcast,340,2013-09-20 13:35:00
8:55 AM,61.0,59.9,96,29.70,10.0,NW,4.6,-,N/A,,Overcast,320,2013-09-20 13:55:00
9:15 AM,61.2,60.1,96,29.71,10.0,Calm,Calm,-,N/A,,Overcast,0,2013-09-20 14:15:00
9:35 AM,61.7,61.0,97,29.71,10.0,WSW,5.8,-,N/A,,Overcast,240,2013-09-20 14:35:00
9:55 AM,61.9,60.6,96,29.72,10.0,WSW,9.2,-,N/A,,Overcast,250,2013-09-20 14:55:00
10:15 AM,62.2,60.6,94,29.73,10.0,West,10.4,16.1,N/A,,Overcast,260,2013-09-20 15:15:00
10:35 AM,62.6,58.6,87,29.74,10.0,West,11.5,-,N/A,,Overcast,270,2013-09-20 15:35:00
10:55 AM,63.1,57.9,83,29.74,10.0,West,11.5,16.1,N/A,,Overcast,270,2013-09-20 15:55:00
11:15 AM,64.6,57.0,76,29.73,10.0,West,11.5,-,N/A,,Mostly Cloudy,270,2013-09-20 16:15:00
11:35 AM,65.1,56.1,73,29.73,10.0,WSW,15.0,-,N/A,,Mostly Cloudy,250,2013-09-20 16:35:00
11:55 AM,64.2,53.2,67,29.73,10.0,West,11.5,-,N/A,,Mostly Cloudy,260,2013-09-20 16:55:00
12:15 PM,63.9,52.7,67,29.73,10.0,West,12.7,19.6,N/A,,Overcast,270,2013-09-20 17:15:00
12:35 PM,66.2,52.9,62,29.72,10.0,West,11.5,19.6,N/A,,Mostly Cloudy,260,2013-09-20 17:35:00
12:55 PM,65.7,52.5,62,29.72,10.0,West,12.7,17.3,N/A,,Scattered Clouds,270,2013-09-20 17:55:00
1:15 PM,67.1,51.8,58,29.71,10.0,West,11.5,-,N/A,,Scattered Clouds,260,2013-09-20 18:15:00
1:35 PM,67.8,52.7,58,29.71,10.0,West,10.4,16.1,N/A,,Scattered Clouds,280,2013-09-20 18:35:00
1:55 PM,64.9,50.9,60,29.71,10.0,WNW,11.5,-,N/A,,Mostly Cloudy,290,2013-09-20 18:55:00
2:15 PM,57.6,56.7,97,29.72,5.0,NW,9.2,-,0.04,Rain,Rain,310,2013-09-20 19:15:00
2:35 PM,60.8,56.8,87,29.72,10.0,WNW,6.9,-,0.04,,Mostly Cloudy,300,2013-09-20 19:35:00
2:55 PM,61.0,54.5,79,29.72,10.0,WNW,9.2,-,0.04,,Overcast,290,2013-09-20 19:55:00
3:15 PM,60.1,53.8,80,29.72,10.0,West,8.1,-,N/A,,Overcast,280,2013-09-20 20:15:00
3:35 PM,60.1,53.6,79,29.73,10.0,West,6.9,-,N/A,,Overcast,280,2013-09-20 20:35:00
3:55 PM,58.5,52.7,81,29.74,7.0,WNW,12.7,18.4,N/A,Rain,Light Rain,300,2013-09-20 20:55:00
4:15 PM,59.2,52.2,78,29.74,10.0,NW,11.5,19.6,N/A,,Overcast,320,2013-09-20 21:15:00
4:35 PM,57.6,50.4,77,29.75,10.0,NW,12.7,19.6,N/A,,Overcast,310,2013-09-20 21:35:00
4:55 PM,57.9,50.0,75,29.75,10.0,NW,11.5,-,N/A,,Overcast,310,2013-09-20 21:55:00
5:15 PM,56.7,49.1,76,29.76,10.0,WNW,9.2,16.1,N/A,,Overcast,290,2013-09-20 22:15:00
5:35 PM,56.5,49.3,77,29.76,10.0,WNW,9.2,-,N/A,,Overcast,300,2013-09-20 22:35:00
5:55 PM,56.1,48.4,75,29.77,10.0,NNW,10.4,-,N/A,,Overcast,330,2013-09-20 22:55:00
6:15 PM,55.4,49.6,81,29.77,10.0,NNW,8.1,-,N/A,Rain,Light Rain,330,2013-09-20 23:15:00
6:35 PM,54.3,48.7,81,29.78,10.0,WNW,4.6,-,N/A,,Scattered Clouds,300,2013-09-20 23:35:00
6:55 PM,53.1,48.6,85,29.78,10.0,NW,4.6,-,N/A,,Scattered Clouds,310,2013-09-20 23:55:00
7:15 PM,52.0,50.9,96,29.78,10.0,NW,4.6,-,N/A,,Mostly Cloudy,310,2013-09-21 00:15:00
7:35 PM,52.5,51.8,97,29.79,10.0,WNW,4.6,-,N/A,,Overcast,300,2013-09-21 00:35:00
7:55 PM,52.3,48.7,88,29.79,10.0,NW,8.1,-,N/A,Rain,Light Rain,310,2013-09-21 00:55:00
8:15 PM,51.6,49.3,92,29.79,10.0,NW,5.8,-,N/A,,Overcast,310,2013-09-21 01:15:00
8:35 PM,50.9,49.5,95,29.80,10.0,WNW,4.6,-,N/A,,Overcast,290,2013-09-21 01:35:00
8:55 PM,50.2,49.1,96,29.80,10.0,WNW,5.8,-,N/A,,Scattered Clouds,300,2013-09-21 01:55:00
9:15 PM,49.5,48.6,97,29.81,10.0,WNW,4.6,-,N/A,,Clear,290,2013-09-21 02:15:00
9:35 PM,49.3,49.1,99,29.81,10.0,WNW,4.6,-,N/A,,Scattered Clouds,290,2013-09-21 02:35:00
9:55 PM,48.4,48.2,99,29.81,10.0,WNW,4.6,-,N/A,,Scattered Clouds,300,2013-09-21 02:55:00
10:15 PM,47.8,47.7,99,29.81,10.0,WNW,4.6,-,N/A,,Scattered Clouds,300,2013-09-21 03:15:00
10:35 PM,49.1,48.6,98,29.81,10.0,WNW,4.6,-,N/A,,Mostly Cloudy,300,2013-09-21 03:35:00
10:55 PM,48.2,47.8,99,29.81,10.0,Calm,Calm,-,N/A,,Mostly Cloudy,0,2013-09-21 03:55:00
11:15 PM,48.0,47.8,99,29.81,10.0,West,3.5,-,N/A,,Mostly Cloudy,280,2013-09-21 04:15:00
11:35 PM,49.1,48.7,99,29.81,10.0,WNW,5.8,-,N/A,,Overcast,290,2013-09-21 04:35:00
11:55 PM,49.1,48.2,97,29.81,10.0,WNW,4.6,-,N/A,,Overcast,300,2013-09-21 04:55:00